"2016-07-23 00:00:00",1833049,4.957,322.7,4.155,0.258,27.7,111.9968,30.03,31.13,18.11,0,111.8,12.93,30.89,284.7
"2016-07-23 00:00:30",1833050,4.86,317.1,2.929,0.39,27.73,111.9966,30.03,31.12,18.43,0,111.8,12.93,30.89,279.1
"2016-07-23 00:01:00",1833051,4.772,320.3,4.594,0.316,27.74,111.9993,30.04,31.11,18.43,0,111.8,12.94,30.89,282.3
"2016-07-23 00:01:30",1833052,4.921,323.4,2.134,0.247,27.77,111.991,30.01,31.09,18.2,0,111.8,12.93,30.87,285.4
"2016-07-23 00:02:00",1833053,4.87,320.1,3.874,0.237,27.85,111.9879,30.01,31.07,17.8,0,111.8,12.93,30.86,282.1
"2016-07-23 00:02:30",1833054,4.212,317.4,7.564,0.502,27.88,111.9877,30.01,31.06,17.96,0,111.8,12.93,30.86,279.4
"2016-07-23 00:03:00",1833055,4.063,318.5,8.05,0.669,27.86,111.9735,29.97,31.04,18.37,0,111.8,12.93,30.83,280.5
"2016-07-23 00:03:30",1833056,4.572,331.1,8.51,0.45,27.82,111.9575,29.93,31.03,18.34,0,111.7,12.92,30.78,293.1
"2016-07-23 00:04:00",1833057,3.249,321.4,10.13,0.364,27.8,111.9582,29.93,30.99,18.4,0,111.7,12.92,30.79,283.4
"2016-07-23 00:04:30",1833058,3.699,313.4,4.638,0.346,27.75,111.9557,29.92,30.96,18.47,0,111.7,12.92,30.78,275.4
"2016-07-23 00:05:00",1833059,4.337,321.5,1.831,0.332,27.79,111.9399,29.88,30.95,18.52,0,111.7,12.92,30.74,283.5
"2016-07-23 00:05:30",1833060,4.872,333.4,4.306,0.572,27.83,111.9328,29.86,30.93,18.31,0,111.7,12.92,30.72,295.4
"2016-07-23 00:06:00",1833061,4.946,330.1,2.318,0.396,27.85,111.9328,29.86,30.9,18.31,0,111.7,12.92,30.72,292.1
"2016-07-23 00:06:30",1833062,4.473,325.9,1.46,0.222,27.81,111.9286,29.85,30.89,18.64,0,111.7,12.93,30.71,287.9
"2016-07-23 00:07:00",1833063,3.941,328.3,1.875,0.173,27.86,111.9179,29.83,30.88,18.72,0,111.7,12.93,30.68,290.3
"2016-07-23 00:07:30",1833064,4.32,332,3.576,0.289,27.88,111.909,29.8,30.86,18.7,0,111.7,12.94,30.66,294.0
"2016-07-23 00:08:00",1833065,4.297,325.1,3.572,0.252,27.89,111.8994,29.78,30.86,18.85,0,111.7,12.94,30.63,287.1
"2016-07-23 00:08:30",1833066,3.546,336.1,7.114,0.346,27.88,111.8992,29.78,30.85,18.8,0,111.7,12.94,30.63,298.1
"2016-07-23 00:09:00",1833067,3.988,324.8,4.273,0.408,27.87,111.8989,29.78,30.84,18.89,0,111.7,12.94,30.63,286.8
"2016-07-23 00:09:30",1833068,3.884,326.6,2.458,0.239,27.92,111.894,29.76,30.83,18.85,0,111.7,12.94,30.62,288.6
"2016-07-23 00:10:00",1833069,3.951,329.6,3.053,0.254,27.87,111.8907,29.76,30.81,18.85,0,111.7,12.94,30.61,291.6
"2016-07-23 00:10:30",1833070,4.21,327.3,3.014,0.327,27.86,111.8942,29.77,30.8,18.97,0,111.7,12.94,30.62,289.3
"2016-07-23 00:11:00",1833071,4.63,321.9,2.467,0.404,27.86,111.8928,29.76,30.79,18.95,0,111.7,12.94,30.62,283.9
"2016-07-23 00:11:30",1833072,4.056,323.7,2.558,0.447,27.84,111.8938,29.76,30.79,18.82,0,111.7,12.94,30.62,285.7
"2016-07-23 00:12:00",1833073,2.996,322.3,3.725,0.145,27.77,111.8921,29.76,30.78,19.02,0,111.7,12.94,30.62,284.3
"2016-07-23 00:12:30",1833074,3.196,336.8,7.323,0.377,27.89,111.8729,29.71,30.76,18.85,0,111.7,12.94,30.57,298.8
"2016-07-23 00:13:00",1833075,3.43,338.9,2.124,0.618,27.88,111.8702,29.7,30.72,18.74,0,111.7,12.95,30.56,300.9
"2016-07-23 00:13:30",1833076,3.471,335.9,6.943,0.386,27.9,111.8692,29.7,30.73,18.78,0,111.6,12.94,30.56,297.9
"2016-07-23 00:14:00",1833077,3.065,320.9,4.019,0.148,27.84,111.8695,29.7,30.7,18.75,0,111.7,12.95,30.56,282.9
"2016-07-23 00:14:30",1833078,3.491,316,2.677,0.24,27.85,111.8695,29.7,30.7,18.88,0,111.6,12.95,30.56,278.0
"2016-07-23 00:15:00",1833079,4.197,317.7,3.183,0.374,27.86,111.8595,29.68,30.7,18.93,0,111.6,12.95,30.53,279.7
"2016-07-23 00:15:30",1833080,4.15,319.7,4.158,0.488,27.86,111.8522,29.66,30.69,18.95,0,111.6,12.95,30.51,281.7
"2016-07-23 00:16:00",1833081,3.356,334.6,2.837,0.134,27.89,111.8407,29.63,30.68,18.88,0,111.6,12.95,30.48,296.6
"2016-07-23 00:16:30",1833082,3.599,317.9,4.352,0.26,27.9,111.8359,29.62,30.66,18.9,0,111.6,12.95,30.47,279.9
"2016-07-23 00:17:00",1833083,3.335,327.1,5.86,0.559,27.87,111.8362,29.62,30.68,18.96,0,111.6,12.95,30.47,289.1
"2016-07-23 00:17:30",1833084,2.958,322.5,4.372,0.358,27.93,111.8357,29.61,30.64,19,0,111.6,12.95,30.47,284.5
"2016-07-23 00:18:00",1833085,3.658,318.5,2.058,0.226,27.86,111.8396,29.62,30.64,19.03,0,111.6,12.95,30.48,280.5
"2016-07-23 00:18:30",1833086,4.196,319.2,1.341,0.218,27.88,111.835,29.61,30.63,19.01,0,111.6,12.95,30.47,281.2
"2016-07-23 00:19:00",1833087,4.451,327.4,2.289,0.265,27.92,111.8306,29.6,30.62,18.98,0,111.6,12.95,30.46,289.4
"2016-07-23 00:19:30",1833088,4.689,327.2,2.936,0.304,27.97,111.8313,29.6,30.64,18.93,0,111.6,12.94,30.46,289.2
"2016-07-23 00:20:00",1833089,3.843,327.6,1.783,0.364,27.88,111.8298,29.6,30.64,18.96,0,111.6,12.94,30.45,289.6
"2016-07-23 00:20:30",1833090,3.96,344.2,3.973,0.404,28.01,111.8302,29.6,30.62,18.96,0,111.6,12.94,30.46,306.2
"2016-07-23 00:21:00",1833091,2.8,345.3,6.52,0.484,28,111.8308,29.6,30.61,18.94,0,111.6,12.94,30.46,307.3
"2016-07-23 00:21:30",1833092,3.359,345.7,6.539,0.842,27.99,111.8305,29.6,30.61,18.91,0,111.6,12.94,30.46,307.7
"2016-07-23 00:22:00",1833093,3.935,356.6,4.002,0.644,28.02,111.8308,29.6,30.6,18.92,0,111.6,12.94,30.46,318.6
"2016-07-23 00:22:30",1833094,3.674,350,4.179,0.318,27.95,111.8295,29.6,30.59,18.81,0,111.6,12.94,30.45,312.0
"2016-07-23 00:23:00",1833095,2.968,333.2,12.92,0.487,27.91,111.8214,29.58,30.59,18.83,0,111.6,12.94,30.43,295.2
"2016-07-23 00:23:30",1833096,2.29,317.1,3.565,0.184,28.04,111.8179,29.57,30.58,18.9,0,111.6,12.94,30.42,279.1
"2016-07-23 00:24:00",1833097,2.406,308.9,2.569,0.125,27.86,111.814,29.56,30.58,18.93,0,111.6,12.94,30.41,270.9
"2016-07-23 00:24:30",1833098,2.249,317.7,10.4,0.229,27.83,111.8093,29.55,30.58,18.99,0,111.6,12.94,30.40,279.7
"2016-07-23 00:25:00",1833099,2.046,318,5.829,0.325,27.92,111.8065,29.54,30.58,19.03,0,111.6,12.95,30.39,280.0
"2016-07-23 00:25:30",1833100,2.207,304,4.708,0.3,27.89,111.8063,29.54,30.58,19,0,111.6,12.95,30.39,266.0
"2016-07-23 00:26:00",1833101,2.324,307.1,3.584,0.23,27.9,111.8063,29.54,30.57,19.06,0,111.6,12.95,30.39,269.1
"2016-07-23 00:26:30",1833102,2.355,308.6,2.653,0.186,27.9,111.8063,29.54,30.56,19.06,0,111.6,12.96,30.39,270.6
"2016-07-23 00:27:00",1833103,1.659,304.1,9.15,0.328,27.98,111.8048,29.54,30.56,19.05,0,111.6,12.96,30.39,266.1
"2016-07-23 00:27:30",1833104,1.605,331.9,23.85,0.396,28.08,111.7995,29.52,30.54,19.07,0,111.6,12.96,30.38,293.9
"2016-07-23 00:28:00",1833105,1.717,343.9,5.404,0.165,28.04,111.7906,29.5,30.55,19.18,0,111.6,12.96,30.35,305.9
"2016-07-23 00:28:30",1833106,1.671,328.3,10.69,0.173,27.98,111.7782,29.47,30.56,19.17,0,111.6,12.96,30.32,290.3
"2016-07-23 00:29:00",1833107,1.621,332.9,6.645,0.201,28,111.7729,29.45,30.53,19.18,0,111.6,12.96,30.31,294.9
"2016-07-23 00:29:30",1833108,1.556,320.8,8.25,0.355,28.04,111.7742,29.46,30.51,19.26,0,111.6,12.96,30.31,282.8
"2016-07-23 00:30:00",1833109,1.728,320.9,3.727,0.204,27.91,111.7779,29.47,30.51,19.26,0,111.5,12.96,30.32,282.9
"2016-07-23 00:30:30",1833110,1.46,305.8,11.9,0.219,27.94,111.7836,29.48,30.5,19.22,0,111.5,12.96,30.34,267.8
"2016-07-23 00:31:00",1833111,0.91,292,4.973,0.11,27.96,111.7912,29.5,30.5,19.26,0,111.6,12.96,30.35,254.0
"2016-07-23 00:31:30",1833112,0.772,299.1,5.382,0.168,28.03,111.7923,29.5,30.49,19.28,0,111.6,12.96,30.36,261.1
"2016-07-23 00:32:00",1833113,1.084,303.8,5.686,0.125,28.16,111.7898,29.5,30.48,19.33,0,111.6,12.96,30.35,265.8
"2016-07-23 00:32:30",1833114,1.024,310.4,7.482,0.071,28.04,111.7863,29.49,30.48,19.31,0,111.6,12.96,30.34,272.4
"2016-07-23 00:33:00",1833115,0.989,321.5,4.984,0.114,27.91,111.7823,29.48,30.48,19.26,0,111.6,12.96,30.33,283.5
"2016-07-23 00:33:30",1833116,1.038,316.4,5.35,0.091,27.93,111.7787,29.47,30.47,19.25,0,111.6,12.96,30.32,278.4
"2016-07-23 00:34:00",1833117,1.314,313.3,4.307,0.253,28.04,111.7756,29.46,30.47,19.25,0,111.5,12.96,30.31,275.3
"2016-07-23 00:34:30",1833118,1.427,307.5,3.514,0.16,27.91,111.7732,29.45,30.47,19.32,0,111.5,12.96,30.31,269.5
"2016-07-23 00:35:00",1833119,1.425,305.4,3.671,0.225,28.02,111.7736,29.45,30.45,19.39,0,111.5,12.96,30.31,267.4
"2016-07-23 00:35:30",1833120,1.641,309.5,5.024,0.265,27.96,111.7737,29.46,30.46,19.41,0,111.5,12.96,30.31,271.5
"2016-07-23 00:36:00",1833121,2.206,313.1,1.93,0.141,27.94,111.775,29.46,30.46,19.43,0,111.5,12.96,30.31,275.1
"2016-07-23 00:36:30",1833122,1.473,314,4.993,0.279,28.03,111.7763,29.46,30.47,19.43,0,111.5,12.96,30.32,276.0
"2016-07-23 00:37:00",1833123,1.385,303.2,5.301,0.176,28,111.7766,29.46,30.47,19.41,0,111.5,12.96,30.32,265.2
"2016-07-23 00:37:30",1833124,2.176,296.9,6.272,0.173,27.96,111.7766,29.46,30.46,19.39,0,111.5,12.96,30.32,258.9
"2016-07-23 00:38:00",1833125,1.788,304.3,2.827,0.131,27.94,111.7766,29.46,30.47,19.34,0,111.5,12.96,30.32,266.3
"2016-07-23 00:38:30",1833126,1.966,302.2,3.814,0.197,27.97,111.7766,29.46,30.46,19.37,0,111.5,12.96,30.32,264.2
"2016-07-23 00:39:00",1833127,2.81,318.1,6.929,0.206,27.94,111.7766,29.46,30.46,19.35,0,111.5,12.96,30.32,280.1
"2016-07-23 00:39:30",1833128,2.645,316.7,6.748,0.11,28.01,111.7766,29.46,30.45,19.34,0,111.5,12.96,30.32,278.7
"2016-07-23 00:40:00",1833129,2.632,313.2,3.016,0.214,27.94,111.7752,29.46,30.45,19.21,0,111.5,12.96,30.31,275.2
"2016-07-23 00:40:30",1833130,2.964,316.1,2.896,0.139,27.96,111.7746,29.46,30.45,19.21,0,111.5,12.96,30.31,278.1
"2016-07-23 00:41:00",1833131,2.992,314.5,1.952,0.086,27.98,111.7715,29.45,30.45,19.32,0,111.5,12.96,30.30,276.5
"2016-07-23 00:41:30",1833132,3.194,318.4,0.767,0.102,28.11,111.7662,29.44,30.44,19.39,0,111.5,12.96,30.29,280.4
"2016-07-23 00:42:00",1833133,3.476,319.8,1.649,0.091,27.96,111.7631,29.43,30.45,19.39,0,111.5,12.96,30.28,281.8
"2016-07-23 00:42:30",1833134,3.225,317.5,3.961,0.228,28.05,111.7612,29.42,30.44,19.44,0,111.5,12.96,30.28,279.5
"2016-07-23 00:43:00",1833135,3.459,316,2.685,0.244,27.99,111.7572,29.41,30.43,19.26,0,111.5,12.97,30.27,278.0
"2016-07-23 00:43:30",1833136,3.557,318.1,2.292,0.259,27.96,111.7515,29.4,30.45,19.18,0,111.5,12.97,30.25,280.1
"2016-07-23 00:44:00",1833137,3.381,313.1,2.315,0.216,27.92,111.7482,29.39,30.43,19.07,0,111.5,12.97,30.24,275.1
"2016-07-23 00:44:30",1833138,3.093,313.9,1.991,0.107,27.96,111.7473,29.39,30.44,19.11,0,111.5,12.97,30.24,275.9
"2016-07-23 00:45:00",1833139,3.145,314.9,4.263,0.131,28.01,111.7505,29.4,30.44,19.28,0,111.5,12.97,30.25,276.9
"2016-07-23 00:45:30",1833140,2.972,312.2,1.574,0.119,27.95,111.7536,29.4,30.43,19.28,0,111.5,12.97,30.26,274.2
"2016-07-23 00:46:00",1833141,3.183,314.5,0.767,0.073,28.06,111.7536,29.4,30.44,19.08,0,111.5,12.97,30.26,276.5
"2016-07-23 00:46:30",1833142,3.393,313.8,1.859,0.133,28.02,111.7551,29.41,30.42,18.97,0,111.5,12.97,30.26,275.8
"2016-07-23 00:47:00",1833143,3.422,314.9,2.12,0.152,28.08,111.7558,29.41,30.43,19.09,0,111.5,12.97,30.26,276.9
"2016-07-23 00:47:30",1833144,4.419,319.7,0.882,0.31,27.99,111.757,29.41,30.43,19.3,0,111.5,12.97,30.27,281.7
"2016-07-23 00:48:00",1833145,4.255,319.2,2.042,0.151,27.96,111.7611,29.42,30.41,19.41,0,111.5,12.97,30.28,281.2
"2016-07-23 00:48:30",1833146,4.342,317.1,0.921,0.076,27.86,111.7668,29.44,30.4,19.53,0,111.5,12.97,30.29,279.1
"2016-07-23 00:49:00",1833147,4.494,319.2,2.34,0.165,28.01,111.769,29.44,30.42,19.63,0,111.5,12.97,30.30,281.2
"2016-07-23 00:49:30",1833148,4.028,324.4,1.785,0.27,27.97,111.7675,29.44,30.41,19.57,0,111.5,12.97,30.29,286.4
"2016-07-23 00:50:00",1833149,3.524,321.9,2.029,0.159,28.02,111.7637,29.43,30.4,19.5,0,111.5,12.97,30.28,283.9
"2016-07-23 00:50:30",1833150,4.096,321.4,1.643,0.082,27.88,111.763,29.43,30.4,19.74,0,111.5,12.97,30.28,283.4
"2016-07-23 00:51:00",1833151,4.255,322.3,0.748,0.136,27.99,111.7565,29.41,30.39,19.93,0,111.5,12.97,30.27,284.3
"2016-07-23 00:51:30",1833152,4.176,323.9,1.833,0.149,28.03,111.7543,29.41,30.4,19.94,0,111.5,12.97,30.26,285.9
"2016-07-23 00:52:00",1833153,3.854,329.1,2.235,0.131,28.04,111.7499,29.39,30.41,19.92,0,111.5,12.97,30.25,291.1
"2016-07-23 00:52:30",1833154,3.573,325.3,1.882,0.112,27.94,111.7474,29.39,30.39,19.9,0,111.5,12.97,30.24,287.3
"2016-07-23 00:53:00",1833155,3.699,322.8,1.972,0.101,28.03,111.7469,29.39,30.38,20.03,0,111.5,12.97,30.24,284.8
"2016-07-23 00:53:30",1833156,3.671,322,0.661,0.115,28.07,111.7469,29.39,30.4,20.09,0,111.5,12.97,30.24,284.0
"2016-07-23 00:54:00",1833157,3.88,322.7,1.566,0.11,27.82,111.7469,29.39,30.38,20.1,0,111.5,12.97,30.24,284.7
"2016-07-23 00:54:30",1833158,3.738,322.7,1.95,0.047,28,111.7469,29.39,30.38,20.1,0,111.5,12.96,30.24,284.7
"2016-07-23 00:55:00",1833159,3.743,322.1,2.431,0.163,27.99,111.7469,29.39,30.38,20.12,0,111.5,12.96,30.24,284.1
"2016-07-23 00:55:30",1833160,3.932,321.5,1.761,0.37,28.08,111.7469,29.39,30.39,20.07,0,111.5,12.96,30.24,283.5
"2016-07-23 00:56:00",1833161,4.042,319.3,2.539,0.164,27.98,111.7469,29.39,30.37,19.89,0,111.5,12.96,30.24,281.3
"2016-07-23 00:56:30",1833162,3.892,320.7,1.374,0.133,27.97,111.7466,29.39,30.37,19.84,0,111.5,12.96,30.24,282.7
"2016-07-23 00:57:00",1833163,3.63,318.7,1.536,0.16,28.02,111.7446,29.38,30.36,19.77,0,111.5,12.96,30.23,280.7
"2016-07-23 00:57:30",1833164,3.422,316.7,1.497,0.133,27.94,111.7362,29.36,30.37,19.72,0,111.5,12.96,30.21,278.7
"2016-07-23 00:58:00",1833165,3.631,319,1.674,0.112,27.99,111.7298,29.34,30.36,19.8,0,111.5,12.96,30.20,281.0
"2016-07-23 00:58:30",1833166,3.995,320.1,1.496,0.198,28,111.7233,29.33,30.36,20.15,0,111.5,12.96,30.18,282.1
"2016-07-23 00:59:00",1833167,4,320.7,1.409,0.307,27.99,111.7171,29.31,30.35,20.2,0,111.5,12.96,30.16,282.7
"2016-07-23 00:59:30",1833168,3.753,320.8,0.859,0.346,28.03,111.7132,29.3,30.33,20.47,0,111.5,12.97,30.15,282.8
"2016-07-23 01:00:00",1833169,2.87,329.3,5.323,0.296,28.04,111.7132,29.3,30.31,20.17,0,111.5,12.97,30.15,291.3
"2016-07-23 01:00:30",1833170,3.013,328.8,5.834,0.185,28.02,111.7129,29.3,30.29,19.99,0,111.5,12.98,30.15,290.8
"2016-07-23 01:01:00",1833171,2.794,335.1,12.25,0.218,28.06,111.7076,29.29,30.26,19.93,0,111.5,12.98,30.14,297.1
"2016-07-23 01:01:30",1833172,3.036,345.8,6.544,0.249,28.1,111.6958,29.25,30.25,20.46,0,111.5,12.98,30.11,307.8
"2016-07-23 01:02:00",1833173,3.12,342.9,2.785,0.252,28.06,111.6818,29.22,30.24,20.7,0,111.5,12.98,30.07,304.9
"2016-07-23 01:02:30",1833174,2.791,353.9,8.21,0.525,28.03,111.6796,29.21,30.21,20.66,0,111.5,12.98,30.07,315.9
"2016-07-23 01:03:00",1833175,1.027,37.74,19.21,0.557,27.81,111.6695,29.19,30.19,21.04,0,111.4,12.98,30.04,359.7
"2016-07-23 01:03:30",1833176,1.086,68.44,22.92,0.684,27.68,111.6534,29.15,30.16,22.02,0,111.5,12.98,30.00,30.4
"2016-07-23 01:04:00",1833177,1.03,86.8,22.83,0.58,27.67,111.652,29.14,30.15,22.13,0,111.5,12.97,30.00,48.8
"2016-07-23 01:04:30",1833178,0.461,58.31,22.89,0.448,27.62,111.6523,29.14,30.14,22.65,0,111.5,12.97,30.00,20.3
"2016-07-23 01:05:00",1833179,0.62,8.44,9.44,0.334,27.65,111.6276,29.08,30.11,22.21,0,111.5,12.97,29.93,330.4
"2016-07-23 01:05:30",1833180,1.809,309,41.26,0.878,27.48,111.6012,29.01,30.08,22.79,0,111.4,12.97,29.86,271.0
"2016-07-23 01:06:00",1833181,1.08,333.4,22.28,0.614,27.43,111.5708,28.93,30.02,23.16,0,111.4,12.97,29.79,295.4
"2016-07-23 01:06:30",1833182,2.198,342.9,15.39,1.037,27.35,111.5556,28.89,29.97,23.72,0,111.4,12.97,29.75,304.9
"2016-07-23 01:07:00",1833183,0.93,53.8,27.14,0.478,27.38,111.5374,28.85,29.92,24.31,0,111.4,12.97,29.70,15.8
"2016-07-23 01:07:30",1833184,0.22,63.67,12.19,0.185,27.37,111.5376,28.85,29.9,25.35,0,111.4,12.97,29.70,25.7
"2016-07-23 01:08:00",1833185,0.763,348.4,24.06,1.173,27.29,111.5318,28.83,29.86,25.3,0,111.4,12.97,29.69,310.4
"2016-07-23 01:08:30",1833186,3.471,316.3,8.69,1.054,27.24,111.5099,28.78,29.83,24.78,0,111.4,12.97,29.63,278.3
"2016-07-23 01:09:00",1833187,0.4,11.41,54.26,0.504,27.33,111.5058,28.77,29.82,24.63,0,111.4,12.97,29.62,333.4
"2016-07-23 01:09:30",1833188,0.51,75.2,17.99,0.353,27.38,111.5061,28.77,29.8,24.71,0,111.4,12.97,29.62,37.2
"2016-07-23 01:10:00",1833189,0.795,64.94,7.199,0.443,27.32,111.5026,28.76,29.78,24.87,0,111.4,12.97,29.61,26.9
"2016-07-23 01:10:30",1833190,0.819,19.7,19.11,0.614,27.19,111.4792,28.7,29.75,25.55,0,111.4,12.97,29.55,341.7
"2016-07-23 01:11:00",1833191,2.392,351.5,20.11,1.538,27.2,111.4755,28.69,29.71,25.6,0,111.5,12.97,29.54,313.5
"2016-07-23 01:11:30",1833192,4.317,338.9,13.43,0.97,27.13,111.4472,28.62,29.68,25.81,0,111.4,12.97,29.47,300.9
"2016-07-23 01:12:00",1833193,0.791,38.09,29.55,0.885,27.25,111.4163,28.54,29.62,26.05,0,111.4,12.96,29.39,0.1
"2016-07-23 01:12:30",1833194,1.671,333.9,37.82,1.001,27.18,111.3709,28.42,29.53,26.2,0,111.4,12.96,29.27,295.9
"2016-07-23 01:13:00",1833195,1.841,339.5,24.55,0.692,27.12,111.3465,28.36,29.48,26.28,0,111.4,12.96,29.21,301.5
"2016-07-23 01:13:30",1833196,1.326,12.45,8.42,0.369,27.11,111.3468,28.36,29.41,26.35,0,111.4,12.96,29.21,334.5
"2016-07-23 01:14:00",1833197,1.475,8.42,15.58,0.612,27.17,111.3314,28.32,29.38,26.58,0,111.4,12.96,29.17,330.4
"2016-07-23 01:14:30",1833198,1.434,6.7,13.16,0.553,27.19,111.3134,28.27,29.36,26.75,0,111.4,12.96,29.12,328.7
"2016-07-23 01:15:00",1833199,2.287,2.764,7.48,0.847,27.2,111.3095,28.26,29.33,26.72,0,111.4,12.96,29.11,324.8
"2016-07-23 01:15:30",1833200,2.264,348.5,5.243,0.538,27.12,111.2848,28.2,29.3,26.85,0,111.4,12.96,29.05,310.5
"2016-07-23 01:16:00",1833201,1.396,5.317,10.07,0.321,27.2,111.2797,28.18,29.28,26.96,0,111.4,12.96,29.03,327.3
"2016-07-23 01:16:30",1833202,1.54,21.43,19.98,0.685,27.21,111.2738,28.17,29.23,27.02,0,111.4,12.96,29.02,343.4
"2016-07-23 01:17:00",1833203,3.872,7.181,11.85,2.068,27.16,111.2463,28.1,29.19,26.8,0,111.4,12.96,28.95,329.2
"2016-07-23 01:17:30",1833204,2.246,13.08,9.31,0.6,27.13,111.2441,28.09,29.16,26.82,0,111.4,12.97,28.94,335.1
"2016-07-23 01:18:00",1833205,3.896,358.4,8.41,1.278,27.09,111.2222,28.04,29.13,26.84,0,111.4,12.97,28.89,320.4
"2016-07-23 01:18:30",1833206,3.624,6.39,11.78,1.721,27.03,111.211,28.01,29.09,26.83,0,111.4,12.97,28.86,328.4
"2016-07-23 01:19:00",1833207,4.432,6.211,10.23,2.095,26.98,111.1827,27.93,29.04,26.51,0,111.4,12.97,28.78,328.2
"2016-07-23 01:19:30",1833208,3.063,12.62,5.161,0.691,27.11,111.1773,27.92,29.02,26.71,0,111.4,12.97,28.77,334.6
"2016-07-23 01:20:00",1833209,2.828,8.94,6.173,0.727,27.14,111.1495,27.85,28.97,27.47,0,111.4,12.97,28.70,330.9
"2016-07-23 01:20:30",1833210,2.313,8.44,7.568,0.546,27.27,111.1425,27.83,28.93,28.4,0,111.4,12.97,28.68,330.4
"2016-07-23 01:21:00",1833211,1.339,35.66,31.51,1.207,27.56,111.1142,27.76,28.89,31.13,0,111.4,12.97,28.61,357.7
"2016-07-23 01:21:30",1833212,0.574,35.96,23.5,0.626,28.03,111.0803,27.67,28.88,34.92,0,111.4,12.97,28.52,358.0
"2016-07-23 01:22:00",1833213,2.427,16.85,5.374,0.642,28.74,111.0324,27.55,28.82,31.83,0,111.4,12.97,28.40,338.9
"2016-07-23 01:22:30",1833214,1.366,32.9,16.6,1.143,29.26,110.9998,27.46,28.74,34.47,0,111.4,12.97,28.31,354.9
"2016-07-23 01:23:00",1833215,0.804,32.44,26.91,1.051,29.26,110.9368,27.3,28.64,35.04,0,111.4,12.97,28.15,354.4
"2016-07-23 01:23:30",1833216,0.937,23.34,17.57,0.578,29.72,110.8477,27.07,28.51,35.06,0,111.4,12.97,27.92,345.3
"2016-07-23 01:24:00",1833217,2.562,35.58,12.24,1.326,30.54,110.746,26.81,28.37,34.94,0,111.4,12.98,27.66,357.6
"2016-07-23 01:24:30",1833218,1.491,22.72,8.72,0.709,30.68,110.6209,26.49,28.19,35.13,0,111.4,12.98,27.33,344.7
"2016-07-23 01:25:00",1833219,2.76,37.25,9.55,1.295,30.77,110.4934,26.16,27.99,35.34,0,111.4,12.98,27.01,359.2
"2016-07-23 01:25:30",1833220,1.638,35.39,7.693,0.601,30.78,110.3548,25.81,27.76,35.57,0,111.4,12.98,26.65,357.4
"2016-07-23 01:26:00",1833221,0.783,47.64,16.52,0.553,30.78,110.2209,25.46,27.5,36.17,0,111.4,12.98,26.30,9.6
"2016-07-23 01:26:30",1833222,1.709,38.29,15.72,0.536,31.03,110.1031,25.16,27.25,36.29,0,111.3,12.98,26.00,0.3
"2016-07-23 01:27:00",1833223,1.957,55.62,5.934,0.396,30.96,110.0191,24.94,27.01,37.01,0,111.3,12.98,25.78,17.6
"2016-07-23 01:27:30",1833224,1.261,60.69,9.24,0.483,30.68,109.9616,24.8,26.76,37.5,0,111.3,12.99,25.63,22.7
"2016-07-23 01:28:00",1833225,2.106,38.09,15.92,1.341,30.92,109.8994,24.64,26.54,38.16,0,111.3,12.99,25.47,0.1
"2016-07-23 01:28:30",1833226,1.342,22.76,14.38,0.965,30.74,109.827,24.45,26.35,37.52,0,111.3,12.99,25.29,344.8
"2016-07-23 01:29:00",1833227,1.165,35.74,22.35,1.084,30.66,109.7577,24.27,26.19,38.59,0,111.3,12.99,25.11,357.7
"2016-07-23 01:29:30",1833228,0.541,60.93,22,0.415,30.2,109.6838,24.08,26,38.55,0,111.3,12.98,24.92,22.9
"2016-07-23 01:30:00",1833229,1.275,52.12,15.81,0.488,30.32,109.6128,23.9,25.8,37.56,0,111.3,12.98,24.74,14.1
"2016-07-23 01:30:30",1833230,1.458,34.93,25.61,0.516,29.96,109.5786,23.81,25.63,34.82,0,111.3,12.98,24.65,356.9
"2016-07-23 01:31:00",1833231,2.567,5.338,4.941,1.104,30.19,109.5468,23.73,25.5,37.32,0,111.2,12.98,24.57,327.3
"2016-07-23 01:31:30",1833232,5.166,12.31,8.46,0.942,30.64,109.5,23.61,25.37,36,0,111.2,12.99,24.44,334.3
"2016-07-23 01:32:00",1833233,4.199,12.81,8.96,1.577,30.37,109.4741,23.54,25.24,36.02,0,111.2,12.99,24.38,334.8
"2016-07-23 01:32:30",1833234,3.433,6.558,10.79,1.599,30.13,109.4858,23.57,25.12,36.59,0,111.2,12.99,24.41,328.6
"2016-07-23 01:33:00",1833235,2.534,5.483,9.39,1.118,30.06,109.4955,23.6,25.06,37.1,0,111.2,12.99,24.43,327.5
"2016-07-23 01:33:30",1833236,2.074,16.31,7.472,0.685,30.13,109.5036,23.62,25.01,37.86,0,111.2,12.99,24.45,338.3
"2016-07-23 01:34:00",1833237,0.64,31.54,19.19,0.494,29.88,109.504,23.62,24.97,41.31,0,111.2,13,24.45,353.5
"2016-07-23 01:34:30",1833238,1.048,43.81,17.68,0.834,29.75,109.4784,23.55,24.91,39.83,0,111.2,13,24.39,5.8
"2016-07-23 01:35:00",1833239,2.156,40.01,7.545,0.689,29.68,109.5177,23.66,24.88,36.87,0,111.2,13,24.49,2.0
"2016-07-23 01:35:30",1833240,2.524,46.94,17.22,1.278,29.38,109.5382,23.71,24.9,38.38,0,111.2,13,24.54,8.9
"2016-07-23 01:36:00",1833241,1.331,34.94,8.32,0.661,29,109.5211,23.66,24.89,38.46,0,111.1,13.01,24.50,356.9
"2016-07-23 01:36:30",1833242,3.699,36.24,7.688,1.633,29.4,109.502,23.62,24.88,36.8,0,111.1,13,24.45,358.2
"2016-07-23 01:37:00",1833243,1.769,33.42,9.58,0.923,28.93,109.4742,23.54,24.83,36.73,0,111.1,13.01,24.38,355.4
"2016-07-23 01:37:30",1833244,2.605,45.09,11.54,0.98,28.99,109.4727,23.54,24.79,37.27,0,111.1,13.01,24.37,7.1
"2016-07-23 01:38:00",1833245,1.002,67.75,6.559,0.418,28.34,109.4771,23.55,24.76,35.23,0,111.1,13.01,24.39,29.8
"2016-07-23 01:38:30",1833246,0.851,56.69,13.69,0.392,27.94,109.5048,23.62,24.74,36.03,0,111.1,13.01,24.46,18.7
"2016-07-23 01:39:00",1833247,0.82,33.7,38.96,0.624,28.17,109.5597,23.76,24.75,35.76,0,111.1,13.01,24.60,355.7
"2016-07-23 01:39:30",1833248,0.378,73.21,31.99,0.513,27.61,109.5938,23.85,24.79,39.56,0,111.1,13.01,24.69,35.2
"2016-07-23 01:40:00",1833249,1.408,67.48,27.58,0.724,27.69,109.5901,23.84,24.85,39.29,0,111.1,13.01,24.68,29.5
"2016-07-23 01:40:30",1833250,0.873,53.98,12.95,0.442,27.62,109.5794,23.81,24.85,39.51,0,111.1,13.01,24.65,16.0
"2016-07-23 01:41:00",1833251,1.966,52.71,15.82,1.469,27.69,109.5769,23.81,24.86,37.1,0,111.1,13.01,24.64,14.7
"2016-07-23 01:41:30",1833252,1.9,27.91,14.25,1.336,27.53,109.5819,23.82,24.88,36.63,0,111.1,13.01,24.66,349.9
"2016-07-23 01:42:00",1833253,1.687,9.42,9.96,0.766,27.67,109.5971,23.86,24.88,36.79,0,111.1,13.01,24.69,331.4
"2016-07-23 01:42:30",1833254,2.106,14.03,6.031,0.539,27.77,109.5951,23.85,24.88,34.81,0,111.1,13.01,24.69,336.0
"2016-07-23 01:43:00",1833255,1.558,29.66,13.75,0.574,27.54,109.614,23.9,24.9,35.51,0,111.1,13.01,24.74,351.7
"2016-07-23 01:43:30",1833256,1.987,45.06,7.589,0.695,27.35,109.6715,24.05,24.95,33.92,0,111.1,13.01,24.89,7.1
"2016-07-23 01:44:00",1833257,0.867,34.01,19.9,0.591,27.2,109.71,24.15,25.02,37.17,0,111.1,13.01,24.99,356.0
"2016-07-23 01:44:30",1833258,2.465,27.24,15.09,1.708,27.59,109.71,24.15,25.08,36.82,0,111.1,13.01,24.99,349.2
"2016-07-23 01:45:00",1833259,2.923,30.29,13.96,1.807,27.51,109.71,24.15,25.1,36.01,0,111.1,13.01,24.99,352.3
"2016-07-23 01:45:30",1833260,2.19,19.17,15.92,0.573,27.54,109.7291,24.2,25.13,35.55,0,111.1,13.01,25.03,341.2
"2016-07-23 01:46:00",1833261,0.959,28.23,22.12,0.661,27.27,109.7334,24.21,25.16,36.93,0,111.1,13.01,25.05,350.2
"2016-07-23 01:46:30",1833262,1.278,37.37,21.1,0.678,26.89,109.7384,24.22,25.19,36.32,0,111.1,13.01,25.06,359.4
"2016-07-23 01:47:00",1833263,1.232,47.1,19.51,0.74,27.26,109.8017,24.39,25.24,35.16,0,111.1,13.01,25.22,9.1